Zurück zum Katalog

STARLINK-3740

AktivKommunikationVLEO
NORAD 52265·PAYLOAD·🇺🇸 United States

Gestartet Apr 21, 2022 von Cape Canaveral Space Force Station

Loading…

Nächste Überflüge (nächste 24 Stunden)

TLE

AktuellSource: CelesTrak SupGP

Epoche: Sep 15, 2026, 01:49 UTC

1 52265C 22041E   26258.07618056  .00044671  00000+0  13200-2 0  2582
2 52265  53.1586 325.1852 0001094  73.9683 131.4512 15.34364382    13

Verfolge STARLINK-3740 in Echtzeit mit AllMySat

Download on the App Store